Weather History for Concordia, KS

Change the Weather History Date:

Friday, February 1, 2013

  Actual Average Record
Temperature  
Mean Temperature 17 °F 30 °F  
Max Temperature 31 °F 40 °F 72 °F (1992)
Min Temperature 3 °F 19 °F -15 °F (1979)
Degree Days  
Heating Degree Days 48 35  
Month to date heating degree days 48 35  
Since 1 July heating degree days 3156 3339  
Cooling Degree Days 0 0  
Month to date cooling degree days 0 0  
Year to date cooling degree days 0 0  
Moisture  
Dew Point 10 °F    
Average Humidity 65    
Maximum Humidity 76    
Minimum Humidity 53    
Precipitation  
Precipitation 0.00 in 0.03 in 0.51 in (1919)
Month to date precipitation 0.00 0.03  
Year to date precipitation 0.69 0.61  
Snow  
Snow 0.00 in 0.20 in 6.40 in (1983)
Month to date snowfall 0.0 0.2  
Year to date snowfall 5.2 5.9  
Since 1 July snowfall 13.7 12.4  
Snow Depth 0.00 in    
Sea Level Pressure  
Sea Level Pressure 30.28 in    
Wind  
Wind Speed 11 mph (SSW)    
Max Wind Speed 22 mph    
Max Gust Speed 28 mph    
Visibility 10 miles    
Events      
T = Trace of Precipitation, MM = Missing Value Source: NWS Daily Summary

Daily Weather History Graph

Daily Weather History Graph

Search for Another Location

Airport:

Trip Planner

Search our weather history database for the weather conditions in past years. The results will help you decide how hot, cold, wet, or windy it might be!

Date:

Astronomy

Feb. 01, 2013 Rise Set
Actual Time 7:37 AM CST 5:51 PM CST
Civil Twilight 7:09 AM CST 6:19 PM CST
Nautical Twilight 6:37 AM CST 6:51 PM CST
Astronomical Twilight 6:05 AM CST 7:23 PM CST
Moon 11:58 PM CST (2/1) 10:13 AM CST (2/1)
Length of Visible Light 11h 09m
Length of Day
10h 13m
Waning Gibbous, 70% of the Moon is Illuminated
Feb 1
Waning Gibbous
Feb 3
Last Quarter
Feb 10
New
Feb 17
First Quarter
Feb 25
Full

Hourly Weather History & Observations

Time (CST) Temp. Windchill Dew Point Humidity Pressure Visibility Wind Dir Wind Speed Gust Speed Precip Events Conditions
12:55 AM 7.0 °F - -2.9 °F 64% 30.47 in 10.0 mi Calm Calm - N/A   Clear
1:55 AM 6.1 °F -0.9 °F -2.0 °F 69% 30.44 in 10.0 mi South 3.5 mph - N/A   Partly Cloudy
2:55 AM 5.0 °F - -2.9 °F 70% 30.44 in 10.0 mi Calm Calm - N/A   Mostly Cloudy
3:55 AM 8.1 °F -2.0 °F -0.0 °F 70% 30.43 in 10.0 mi South 5.8 mph - N/A   Clear
4:55 AM 9.0 °F -5.1 °F 1.0 °F 70% 30.41 in 10.0 mi South 10.4 mph - N/A   Clear
5:55 AM 8.1 °F -3.2 °F 1.9 °F 76% 30.40 in 10.0 mi South 6.9 mph - N/A   Clear
6:55 AM 10.0 °F -4.5 °F 1.9 °F 70% 30.40 in 10.0 mi South 11.5 mph - N/A   Clear
7:55 AM 10.0 °F -2.9 °F 3.9 °F 76% 30.38 in 10.0 mi South 9.2 mph - N/A   Clear
8:55 AM 12.9 °F 0.7 °F 6.1 °F 74% 30.37 in 10.0 mi South 9.2 mph - N/A   Scattered Clouds
9:55 AM 18.0 °F 3.6 °F 10.0 °F 71% 30.35 in 10.0 mi SSW 15.0 mph - N/A   Mostly Cloudy
10:55 AM 21.9 °F 8.7 °F 12.9 °F 68% 30.32 in 10.0 mi SSW 15.0 mph - N/A   Overcast
11:55 AM 24.1 °F 11.0 °F 12.0 °F 60% 30.31 in 10.0 mi SSW 16.1 mph - N/A   Clear
12:55 PM 25.0 °F 11.7 °F 12.0 °F 58% 30.27 in 10.0 mi SSW 17.3 mph 23.0 mph N/A   Clear
1:55 PM 26.1 °F 14.0 °F 12.9 °F 58% 30.25 in 10.0 mi SSW 15.0 mph 23.0 mph N/A   Mostly Cloudy
2:55 PM 27.0 °F 16.7 °F 15.1 °F 61% 30.22 in 10.0 mi SSW 11.5 mph - N/A   Mostly Cloudy
3:55 PM 28.0 °F 18.1 °F 17.1 °F 63% 30.19 in 10.0 mi SSW 11.5 mph - N/A   Mostly Cloudy
4:55 PM 28.0 °F 18.1 °F 17.1 °F 63% 30.16 in 10.0 mi South 11.5 mph - N/A   Clear
5:55 PM 27.0 °F 18.0 °F 17.1 °F 66% 30.14 in 10.0 mi South 9.2 mph - N/A   Clear
6:55 PM 28.0 °F 20.8 °F 18.0 °F 66% 30.15 in 10.0 mi South 6.9 mph - N/A   Clear
7:55 PM 30.0 °F 19.5 °F 17.1 °F 59% 30.14 in 10.0 mi SSW 13.8 mph - N/A   Clear
8:55 PM 30.9 °F 19.1 °F 16.0 °F 54% 30.13 in 10.0 mi SSW 18.4 mph 23.0 mph N/A   Scattered Clouds
9:55 PM 30.0 °F 17.5 °F 17.1 °F 59% 30.12 in 10.0 mi SSW 19.6 mph - N/A   Mostly Cloudy
10:55 PM 30.0 °F 19.1 °F 17.1 °F 59% 30.12 in 10.0 mi SW 15.0 mph - N/A   Clear
11:55 PM 28.9 °F 22.8 °F 19.0 °F 67% 30.14 in 10.0 mi West 5.8 mph - N/A   Overcast